This is the latest recevied weather packets stored in our database for station/object KN6WGU. If no packets are shown the sender has not sent any weather packets the latest 10 day(s).
| Time | Temp. | Humidity | Pressure | Rain* | Wind** | Luminosity | Snow |
|---|---|---|---|---|---|---|---|
| 1787594710 | 21.67° C | 66% | 1009.8 hPa | 0 mm | - | 357 W/m² | - |
| 1787594409 | 22.78° C | 62% | 1009.8 hPa | 0 mm | - | 172 W/m² | - |
| 1787594109 | 22.22° C | 62% | 1009.9 hPa | 0 mm | - | 778 W/m² | - |
| 1787593804 | 21.67° C | 63% | 1009.9 hPa | 0 mm | - | 239 W/m² | - |
| 1787593499 | 21.11° C | 64% | 1009.7 hPa | 0 mm | - | 128 W/m² | - |
| 1787593194 | 21.11° C | 65% | 1009.8 hPa | 0 mm | - | 161 W/m² | - |
| 1787592889 | 21.67° C | 64% | 1009.7 hPa | 0 mm | - | 160 W/m² | - |
| 1787592584 | 21.11° C | 65% | 1009.8 hPa | 0 mm | - | 118 W/m² | - |
| 1787592278 | 20.56° C | 63% | 1009.7 hPa | 0 mm | - | 665 W/m² | - |
| 1787591974 | 20.56° C | 65% | 1009.6 hPa | 0 mm | - | 195 W/m² | - |
| 1787591669 | 20.56° C | 66% | 1009.7 hPa | 0 mm | - | 97 W/m² | - |
| 1787591365 | 20.56° C | 66% | 1009.7 hPa | 0 mm | - | 105 W/m² | - |
| 1787591060 | 20.56° C | 64% | 1009.6 hPa | 0 mm | - | 77 W/m² | - |
| 1787590756 | 20° C | 69% | 1009.7 hPa | 0 mm | - | 96 W/m² | - |
| 1787590451 | 20° C | 67% | 1009.6 hPa | 0 mm | - | 56 W/m² | - |
| 1787590146 | 20° C | 67% | 1009.7 hPa | 0 mm | - | 106 W/m² | - |
| 1787589841 | 20° C | 70% | 1009.9 hPa | 0 mm | - | 83 W/m² | - |
| 1787589537 | 19.44° C | 69% | 1009.8 hPa | 0 mm | - | 77 W/m² | - |
| 1787589232 | 20° C | 67% | 1010 hPa | 0 mm | - | 85 W/m² | - |
| 1787588928 | 20° C | 69% | 1009.8 hPa | 0 mm | - | 66 W/m² | - |
| 1787588624 | 20° C | 69% | 1009.9 hPa | 0 mm | - | 70 W/m² | - |
| 1787588318 | 19.44° C | 69% | 1009.8 hPa | 0 mm | - | 265 W/m² | - |
| 1787588014 | 20° C | 70% | 1009.8 hPa | 0 mm | - | 100 W/m² | - |
| 1787587710 | 20° C | 70% | 1009.8 hPa | 0 mm | - | 117 W/m² | - |
| 1787587405 | 19.44° C | 71% | 1009.9 hPa | 0 mm | - | 80 W/m² | - |
* Rain latest hour (hover to see other rain measurements)
** Current wind speed in m/s (hover to see current wind gust speed)